Skip Page Navigation
NASA JPL Caltech
NASA Logo - Jet Propulsion Laboratory + View the NASA Portal
+ Center for Near-Earth Object Studies
JPL Home Earth Solar System Stars & Galaxies Technology
JPL Solar System Dynamics
BODIES ORBITS EPHEMERIDES TOOLS PHYSICAL DATA DISCOVERY FAQ SITE MAP
IMPORTANT: The SSD Announcement email list is now available. Major changes are coming in the near future, including possible hostname and/or URL changes. To be notified of such changes, subscribe to this email list.

Please visit this page for more details.


JPL Small-Body Database Browser
Search: [ help ]  
183583 (2003 SV177)
Classification: Main-belt Asteroid          SPK-ID: 2183583
Ephemeris | Orbit Diagram | Orbital Elements | Mission Design | Physical Parameters | Discovery Circumstances | Close-Approach Data ]

[ show orbit diagram ]
Orbital Elements at Epoch 2458600.5 (2019-Apr-27.0) TDB
Reference: JPL 13 (heliocentric ecliptic J2000)
 Element Value Uncertainty (1-sigma)   Units 
e .1729559604704327 4.6789e-08  
a 2.420025509319193 1.0286e-08 au
q 2.001467672991944 1.1427e-07 au
i 3.738628760592987 4.5425e-06 deg
node 216.4746779521096 7.6785e-05 deg
peri 101.9351422767244 7.8087e-05 deg
M 80.39603958221109 1.3108e-05 deg
tp 2458293.413660757530
(2018-Jun-23.91366076)
4.9728e-05 TDB
period 1375.081194319805
3.76
8.767e-06
2.4e-08
d
yr
n .2618027222589404 1.6692e-09 deg/d
Q 2.838583345646442 1.2065e-08 au
  Orbit Determination Parameters
   # obs. used (total)      355  
   data-arc span      7063 days (19.34 yr)  
   first obs. used      1999-07-13  
   last obs. used      2018-11-13  
   planetary ephem.      DE431  
   SB-pert. ephem.      SB431-N16  
   condition code      0  
   norm. resid. RMS      .53141  
   source      ORB  
   producer      Otto Matic  
   solution date      2019-Jul-13 17:48:13  

Additional Information
 Earth MOID = .991617 au 
 Jupiter MOID = 2.46419 au 
 T_jup = 3.491 
[ show covariance matrix ]

Ephemeris | Orbit Diagram | Orbital Elements | Mission Design | Physical Parameters | Discovery Circumstances | Close-Approach Data ]

Physical Parameter Table
Parameter Symbol Value Units Sigma Reference Notes
absolute magnitude H 16.8   n/a MPO412995  

183583 (2003 SV177)          Discovered 2003-Sep-19 by Spacewatch at Kitt Peak
Reference: 20080420/Numbers.arcLast Updated: 2008-04-23

[ show close-approach data ]
Ephemeris | Orbit Diagram | Orbital Elements | Mission Design | Physical Parameters | Discovery Circumstances | Close-Approach Data ]
ABOUT SSD CREDITS/AWARDS PRIVACY/COPYRIGHT GLOSSARY LINKS
FirstGov
(server date/time)  
NASA Home Page
Site Manager:   Ryan S. Park
Webmaster  Alan B. Chamberlin